Location: Milano
(45.4670°N, 9.2000°E)
Time: 19:43:33
(UTC+02:00)

ISS - Pass Details

Date: 16 May 2021
Orbit: 417 x 422 km, 51.6° (Epoch: 14 June)

Event Time Altitude Azimuth Distance (km) Brightness Sun altitude
Rises 02:51:19 0° 298° (WNW) 2,373 0.1 -22.1°
Reaches altitude 10° 02:53:28 10° 305° (NW) 1,508 -0.8 -22.0°
Maximum altitude 02:56:45 47° 21° (NNE) 565 -2.8 -21.8°
Drops below altitude 10° 03:00:02 10° 97° (E) 1,505 -0.7 -21.5°
Sets 03:02:11 0° 103° (ESE) 2,368 0.2 -21.3°
